Regional Weather Roundup
Issued by NWS Cleveland, OH

Home | Current Version | Previous Version | Graphics & Text | Print | Product List | Glossary On
Versions: 1 2 3 4 5 6 7 8 9 10 11 12 13 14 15 16 17 18 19 20 21 22 23 24 25 26 27 28 29 30 31 32 33 34 35 36 37 38 39 40 41 42 43 44 45 46 47 48 49 50
000
ASUS41 KCLE 010400
RWRCLE
OHIO REGIONAL WEATHER ROUNDUP
NATIONAL WEATHER SERVICE WILMINGTON, OH
1200 AM EDT SAT NOV 01 2014

NOTE: "FAIR" INDICATES FEW OR NO CLOUDS BELOW 12,000 FEET WITH NO
SIGNIFICANT WEATHER AND/OR OBSTRUCTIONS TO VISIBILITY.

OHZ001>008-015>018-024>027-034-035-043-044-010500-
   NORTHWEST OHIO

CITY           SKY/WX    TMP DP  RH WIND       PRES   REMARKS
DEFIANCE       LGT SNOW  33  30  88 N17G31    30.13R FOG     WCI  22
FINDLAY        LGT SNOW  34  31  88 N18G24    30.03S FOG     WCI  23
TOLEDO EXPRESS LGT SNOW  33  30  88 N16G31    30.08R FOG     WCI  23
TOLEDO METCALF MIX PCPN  36  32  85 N18G29    30.07R
LIMA           LGT SNOW  34  32  92 N23G29    30.04S WCI  22
$$

OHZ009>014-019>023-028>033-038-089-010500-
   NORTHEAST OHIO

CITY           SKY/WX    TMP DP  RH WIND       PRES   REMARKS
CLE-HOPKINS    LGT RAIN  43  40  89 NW5       29.95S FOG
CLE-LAKEFRONT    N/A    N/A N/A N/A MISG        N/A
CUY CO. ARPT   NOT AVBL
LORAIN-ELYRIA  LGT RAIN  42  41  96 NW7       29.94S FOG
ASHTABULA      CLOUDY    42  40  92 CALM      29.93S FOG
AKRON-CANTON   LGT RAIN  42  39  89 N5        29.90S FOG
WOOSTER        NOT AVBL
MANSFIELD      LGT RAIN  39  39 100 NW14      29.92S
YOUNGSTOWN     LGT RAIN  41  39  93 E3        29.91S FOG
$$

OHZ042-051>053-060>062-070>072-077>081-010500-
  SOUTHWEST OHIO

CITY           SKY/WX    TMP DP  RH WIND       PRES   REMARKS
CINC-COVINGTON CLOUDY    37  31  78 N23G37    30.01R
CINC-LUNKEN    CLOUDY    38  31  76 N18G28    30.04R
HAMILTON       CLOUDY    37  32  82 N15G26    30.06R
DAYTON         NOT AVBL
WRIGHT-PAT AFB FLURRIES  36  32  87 N22G29    30.02R
DAYTON GENERAL CLOUDY    36  31  82 N20G37    30.00S
WILMINGTON     FLURRIES  35  31  85 N22G28    29.97S WCI  23
$$

OHZ036-037-039>041-045>050-054>059-063>069-073>076-082>088-010500-
  CENTRAL AND SOUTHEAST OHIO

CITY           SKY/WX    TMP DP  RH WIND       PRES   REMARKS
COLUMBUS       CLOUDY    38  37  97 N17G24    29.94R
OSU AIRPORT    CLOUDY    37  33  85 N17G28    29.95R
BOLTON FIELD   NOT AVBL
RICKENBACK AFB NOT AVBL
NEWARK         CLOUDY    41  37  86 N8        29.91R
MARION         CLOUDY    35  33  92 N16       29.97S FOG     WCI  25
LANCASTER      CLOUDY    40  37  89 N13       29.92S
ZANESVILLE     LGT RAIN  41  39  93 N5        29.89F FOG
NEW PHILLY     CLOUDY    44  41  89 NW5       29.91S FOG
$$



USA.gov is the U.S. government's official web portal to all federal, state and local government web resources and services.